Weather in Inyushka

Russia / Kemerovo Oblast     54°36′11″N   86°48′03″E
temp.,
°C
wind,
m/s
gust,
m/s
humid.,
%
clouds,
%
prec.,
mm/h
press.,
hPa
HPBL,
m
5 march, fri
fri501:00−7s5108499 0.1 1020221
04:00−10sse4884100 0.0 1018123
07:00−10sse4881100 0.0 1017134
10:00−8sse41080100 0.0 1015274
13:00−2ssw71282100 0.0 10141121
16:00−2sw101684100 0.2 10141384
19:00−4sw7167993 0.4 1019871
22:00−6sw61784100 0.0 1020809
6 march, sat
sat601:00−5ssw71682100 0.0 10201200
04:00−5sw81590100 0.3 10201051
07:00−5sw61389100 0.5 1021960
10:00−5ssw61582100 0.0 10191025
13:00−3ssw71575100 0.0 10181176
16:00−2ssw71575100 0.0 10161285
19:00−4s51580100 0.0 10151047
22:00−4ssw51484100 0.0 1014920
7 march, sun
sun701:00−5ssw61387100 0.0 1014783
04:00−4ssw61394100 0.4 1013840
07:00−4sw61488100 0.8 1014752
10:00−4sw61289100 0.0 1016739
13:00−3w6892100 0.3 1019772
16:00−4w5878100 0.3 1021882
19:00−9w238183 0.3 102322
22:00−12ssw228615 0.0 102521
8 march, mon
mon801:00−12sse228757 0.0 102521
04:00−11se339561 0.0 102341
07:00−10se489580 0.0 1020161
10:00−5sse5990100 0.0 1017254
13:00−2s61185100 0.0 1014371
16:00+1s61389100 0.0 1011601
19:000s71676100 0.0 1010574
22:00−2sw61687100 0.0 1011902
9 march, tue
tue901:00−2wsw6139599 0.3 1015751
04:00−9w4108773 0.6 1020223
07:00−14sw379249 0.6 1024128
10:00−11sw51185100 0.0 1026452
13:00−7sw487799 0.0 1027692
16:00−6ssw46792 0.0 1026849
19:00−9s348515 0.0 102535
22:00−11sse348396 0.0 102440